Location: Unspecified
(0.0000°N, 0.0000°E)
Time: 15:43:11
(UTC+00:00)

Vanguard 2 - Visible Passes

Search period start: 21 November 2017 00:00
Search period end: 01 December 2017 00:00
Orbit: 553 x 2940 km, 32.9° (Epoch: 21 November)

Date Brightness Start Highest point End Pass type
(mag) Time Alt. Az. Time Alt. Az. Time Alt. Az.
21 Nov 11.0 03:28:20 18° N 03:36:35 29° NNE 03:50:42 10° E visible
21 Nov 7.5 18:59:48 10° WSW 19:03:36 47° NNW 19:05:21 29° NNE visible
22 Nov 11.5 01:44:06 12° NE 01:44:06 12° NE 01:46:21 10° NE visible
22 Nov 10.9 03:45:33 19° NNW 03:55:22 37° NE 04:11:00 10° E visible
22 Nov 8.6 19:18:34 10° W 19:21:50 24° NNW 19:22:40 22° NNW visible
23 Nov 11.3 02:01:21 16° NNE 02:01:21 16° NNE 02:09:03 10° ENE visible
23 Nov 10.8 04:02:47 19° NNW 04:13:58 47° NE 04:30:43 10° ESE visible
23 Nov 9.4 19:38:17 10° NW 19:40:00 13° NNW 19:40:00 13° NNW visible
24 Nov 11.0 02:18:36 22° NNE 02:19:27 22° NNE 02:30:47 10° ENE visible
24 Nov 10.6 04:20:02 18° NW 04:32:26 59° NE 04:49:58 10° ESE visible
25 Nov 10.8 02:35:51 28° NNE 02:38:10 29° NE 02:51:43 10° E visible
25 Nov 10.4 04:37:17 15° NW 04:50:49 74° NE 05:08:49 10° ESE visible
26 Nov 10.5 02:53:07 34° N 02:56:39 38° NE 03:11:58 10° E visible
26 Nov 10.4 04:54:33 12° NW 05:09:13 90° SW 05:27:21 10° SE visible
26 Nov 9.2 18:23:29 10° WNW 18:26:05 16° NNW 18:28:37 10° N visible
27 Nov 11.6 01:08:56 11° ENE 01:08:56 11° ENE 01:09:40 10° ENE visible
27 Nov 10.2 03:10:23 40° N 03:14:59 49° NE 03:31:37 10° ESE visible
27 Nov 10.5 05:12:13 10° WNW 05:27:41 74° SW 05:45:37 10° SE visible
28 Nov 11.3 01:26:12 18° ENE 01:26:12 18° ENE 01:31:30 10° ENE visible
28 Nov 10.1 03:27:38 42° NNW 03:33:15 64° NE 03:50:47 10° ESE visible
29 Nov 10.9 01:43:26 26° ENE 01:43:26 26° ENE 01:52:21 10° E visible
29 Nov 10.0 03:44:52 41° NW 03:51:33 80° NE 04:09:34 10° ESE visible
30 Nov 10.5 02:00:39 37° ENE 02:00:39 37° ENE 02:12:28 10° E visible
30 Nov 10.0 04:02:05 35° WNW 04:09:55 82° SW 04:28:04 10° SE visible
